GFSGBSN_850_rhum_057.txt.gz
RH
90 87 84 88 75 68 64 65 84 91 87 86 84 86 89 90 86 94 93 52 81 59 48 40 59 63 84 71 60 86 79 70 69 81 96 98 77 65 50 62 77 91 50 51 73 57 52
92 94 88 95 84 71 68 68 76 90 90 83 88 89 86 86 89 86 95 61 64 77 45 42 49 69 91 59 73 75 87 85 81 75 100 99 76 55 43 47 78 72 62 53 52 55 58
100 98 99 98 99 85 73 67 79 90 91 85 94 85 88 88 96 88 84 86 55 77 43 46 46 82 76 70 71 75 81 84 86 79 98 99 84 61 48 37 52 61 70 60 55 50 47
100 99 96 100 97 95 78 66 71 94 92 85 88 84 84 84 93 83 89 87 66 52 43 46 46 80 64 68 73 79 82 82 89 79 82 83 97 70 47 39 48 73 83 87 56 51 46
100 100 99 100 100 98 86 69 65 90 90 89 89 87 88 84 94 83 95 79 63 55 44 48 76 72 56 68 84 91 83 87 86 97 96 86 96 70 55 49 56 50 75 71 54 45 48
99 100 100 100 100 99 88 68 57 68 94 88 92 87 90 84 94 85 97 72 65 59 62 73 70 70 54 65 91 93 88 82 95 98 97 99 93 60 52 54 63 45 32 40 52 56 54
91 99 100 99 100 100 90 69 53 59 66 87 93 90 88 93 98 89 76 94 86 77 68 57 56 54 53 74 90 86 91 96 92 91 96 94 98 71 42 36 27 27 27 38 38 51 63
86 98 99 100 100 100 91 64 53 51 68 94 89 92 92 95 98 99 76 80 70 70 50 68 66 64 65 78 80 87 95 94 93 83 80 94 98 44 33 32 34 26 30 43 50 56 64
86 98 94 100 100 99 88 59 54 42 73 90 95 96 98 99 95 97 95 76 63 61 62 68 69 69 74 79 67 90 95 99 68 63 82 95 88 66 39 44 42 35 31 33 51 62 58
87 100 95 100 99 98 79 54 49 38 48 89 86 98 99 96 94 96 84 66 61 60 88 65 57 72 77 74 73 83 95 94 90 76 70 80 85 82 49 44 38 42 29 34 40 53 56
89 90 100 97 93 99 69 53 40 35 39 38 45 91 94 93 98 91 85 67 62 76 94 71 66 62 73 66 68 86 94 88 71 74 68 92 93 78 53 43 33 40 37 38 39 42 30
94 100 100 100 93 98 65 51 36 35 31 27 42 64 76 93 99 90 67 64 89 92 91 94 59 56 56 60 66 87 94 94 52 62 87 92 94 72 42 36 37 43 41 40 38 36 56
97 100 100 100 97 96 62 44 34 35 22 33 66 75 91 99 96 76 66 90 97 93 94 78 56 53 52 82 83 86 89 94 73 91 100 98 95 78 58 54 47 40 44 65 63 74 58
99 93 96 100 98 91 59 37 34 35 22 50 77 78 74 73 80 77 98 71 90 79 89 58 52 55 60 72 90 69 96 94 66 50 93 100 99 78 56 43 48 47 37 48 53 52 43
99 100 100 100 100 87 55 33 33 35 26 69 79 90 87 73 79 86 79 98 91 94 59 50 53 57 55 58 63 66 96 86 58 59 85 83 100 80 58 52 42 47 53 38 49 39 44
88 100 98 100 100 83 50 31 32 36 32 76 93 99 98 78 89 98 79 88 77 77 68 43 63 47 54 54 53 55 80 66 66 65 66 64 94 79 70 59 48 45 38 50 60 66 41
81 100 96 100 99 74 44 30 32 34 40 80 100 88 85 85 98 92 89 80 69 67 63 65 85 61 44 44 44 48 64 62 59 62 54 51 50 87 78 68 56 56 58 50 43 50 52
75 100 96 100 97 63 38 30 32 33 52 82 98 78 87 90 95 67 83 66 67 62 70 79 73 62 41 36 42 48 59 58 54 52 60 48 57 75 70 66 53 48 43 42 52 62 43
78 100 98 100 94 62 34 29 32 34 56 86 85 86 87 96 88 64 60 59 58 56 56 56 71 67 59 49 54 55 58 57 60 51 59 48 66 97 92 62 53 58 48 44 39 55 60
86 100 98 100 93 57 31 30 32 33 34 78 83 86 98 97 94 63 58 57 60 61 53 50 46 55 55 54 53 62 64 61 60 55 57 51 50 60 62 60 45 60 50 49 50 69 50
87 100 98 100 92 50 30 31 32 33 30 79 77 59 68 88 72 61 63 57 53 57 53 50 49 49 48 56 57 63 63 65 61 65 53 49 80 74 50 56 60 59 49 48 67 57 58
98 100 100 100 73 44 31 31 32 34 34 76 60 60 75 60 62 60 69 61 54 63 58 53 52 50 44 49 56 59 62 64 65 58 56 52 84 67 82 53 57 64 52 50 51 52 52
100 100 100 98 63 36 32 32 31 34 38 71 53 60 60 62 57 53 54 57 61 60 65 62 52 50 61 71 65 58 53 52 50 58 62 62 69 82 74 54 52 58 44 45 49 46 48
100 100 100 96 57 35 32 32 30 34 36 47 37 69 51 57 52 50 52 57 62 65 63 63 58 52 71 74 68 50 48 48 49 52 54 65 68 68 75 59 67 44 37 40 44 40 40
100 100 100 96 57 35 34 31 32 36 36 39 42 61 47 50 49 55 55 60 65 70 67 62 63 69 74 68 52 58 56 53 53 49 46 44 50 65 71 53 39 51 46 45 48 62 52
100 100 100 89 47 35 34 30 34 33 36 40 49 55 52 49 54 56 58 61 61 62 60 60 58 72 77 57 54 67 72 58 64 63 50 48 44 49 54 60 51 49 43 46 44 58 55
100 100 99 64 38 35 34 33 35 32 34 39 51 44 58 60 75 64 55 61 70 63 55 55 60 63 67 58 64 58 61 49 66 76 68 62 59 69 66 62 46 49 48 50 67 65 50
100 100 95 54 35 35 33 35 37 35 36 38 37 42 53 69 86 83 72 59 61 55 54 59 63 65 61 70 70 64 56 51 53 52 55 60 62 61 54 67 65 46 51 58 57 55 58
100 100 69 38 36 35 32 36 39 40 42 41 41 42 44 63 89 72 64 56 63 64 62 74 71 71 72 67 60 64 66 60 51 57 50 62 52 54 53 57 51 47 49 56 58 61 64

GFSGBSN_850_rhum_060.txt.gz
RH
98 98 96 93 93 96 88 80 71 88 94 91 78 86 89 80 82 84 77 96 66 74 65 41 42 51 59 76 68 85 62 63 68 79 85 95 88 85 72 63 84 77 63 75 77 68 65
100 100 100 100 95 98 96 86 74 95 91 92 80 90 90 82 82 87 78 86 91 53 74 42 40 66 83 72 70 71 78 69 94 76 79 92 91 71 56 56 78 77 83 74 82 73 77
100 100 100 100 100 100 100 93 80 82 92 93 86 88 83 83 87 89 79 85 90 58 62 41 40 69 73 68 67 65 73 71 76 80 79 92 100 99 59 49 60 72 70 80 67 68 57
96 97 100 100 99 100 100 95 86 85 94 94 89 81 85 85 84 92 85 89 79 67 46 42 46 73 68 66 59 70 73 74 74 89 74 84 92 99 88 45 68 76 80 95 78 84 69
91 93 93 97 100 99 100 98 84 90 82 91 79 88 86 86 86 93 85 91 70 54 48 44 68 74 57 63 76 71 74 83 84 92 76 89 90 94 63 64 80 81 94 97 83 55 57
85 85 87 94 100 98 100 100 83 78 61 55 73 91 90 90 93 95 79 69 55 53 70 77 71 66 65 62 82 82 88 87 86 91 95 99 99 82 72 66 87 92 80 80 86 61 51
89 80 81 92 98 99 100 100 77 56 54 54 91 92 88 92 94 96 74 88 93 92 73 55 52 50 49 70 85 91 92 81 87 93 97 96 97 94 71 57 45 48 56 67 64 62 54
87 84 81 89 100 100 100 99 78 55 45 48 92 93 91 94 92 85 96 83 74 78 62 61 60 57 57 74 83 90 90 86 96 98 94 98 100 76 64 46 38 34 42 59 53 56 60
82 87 86 94 96 98 100 99 70 53 36 39 83 95 92 86 94 82 91 82 67 70 77 62 60 64 66 78 93 94 94 95 93 96 98 99 86 79 64 43 51 43 36 68 65 66 58
82 87 85 91 85 100 100 99 62 45 32 37 43 63 75 92 93 94 87 83 59 64 99 72 59 64 68 70 91 84 98 96 93 97 76 92 78 81 73 56 41 42 28 43 66 73 82
82 88 85 86 95 100 100 94 58 37 32 29 29 35 53 94 97 89 89 62 60 77 96 59 57 56 70 64 72 86 91 93 71 69 61 95 90 94 79 44 37 45 40 55 64 59 53
99 88 88 92 95 100 100 87 55 30 31 24 39 45 64 82 97 94 69 61 88 97 95 82 52 51 54 55 68 89 91 84 61 71 77 87 91 88 78 42 40 38 43 43 42 46 77
100 89 89 96 100 100 100 77 49 29 29 28 65 69 95 98 96 73 66 90 99 91 85 69 54 50 58 74 74 87 84 84 79 93 99 97 95 80 74 58 46 41 54 88 89 88 82
99 100 91 91 100 100 98 74 41 29 25 44 72 67 79 100 86 68 91 92 95 66 87 48 47 51 63 64 75 83 90 80 58 54 100 99 98 90 63 51 59 50 49 78 67 81 67
100 100 96 86 100 100 98 75 34 30 23 64 72 76 100 75 70 82 100 100 90 84 51 48 49 60 63 56 57 76 97 67 56 60 86 100 100 86 65 52 54 56 72 42 63 42 75
100 100 98 81 98 100 99 68 32 32 24 70 80 94 99 80 78 93 99 87 72 73 64 40 59 48 63 55 57 66 85 62 66 58 60 62 99 82 68 60 48 55 40 63 84 69 46
100 98 99 87 97 100 98 58 31 32 31 77 89 98 92 85 85 99 94 70 66 69 56 61 74 53 44 47 44 49 75 58 57 63 55 52 70 90 76 80 65 59 68 56 56 70 84
99 99 100 89 100 100 96 54 31 32 47 82 88 94 94 89 98 85 83 61 62 66 75 71 74 65 44 38 44 50 71 59 53 54 58 56 63 93 90 76 55 59 54 48 82 74 62
100 100 100 94 100 100 92 42 31 32 45 87 79 90 97 96 96 74 61 60 55 57 62 71 67 63 56 43 56 53 61 55 55 57 62 50 76 96 89 65 58 65 53 50 52 66 73
99 98 100 100 100 100 86 43 33 32 60 82 76 85 96 98 92 84 61 57 62 58 51 48 55 56 53 48 52 58 68 57 58 55 54 58 58 78 91 70 60 67 56 52 59 86 66
94 99 99 100 100 100 83 41 34 32 60 82 77 71 72 93 80 67 61 51 56 59 50 47 50 49 48 57 56 56 60 62 60 58 54 58 80 75 55 58 68 61 56 54 71 66 70
98 100 100 100 92 100 78 41 34 34 62 77 69 66 71 59 57 61 63 57 53 61 62 51 51 48 44 60 62 62 60 58 60 58 55 57 90 72 84 53 56 65 56 50 51 55 56
100 100 98 100 97 100 71 40 35 35 35 73 69 58 58 59 60 60 62 57 58 61 62 59 50 56 68 73 59 54 51 52 52 58 60 63 82 90 77 53 54 70 51 55 52 47 48
99 100 100 99 95 95 49 36 36 34 33 59 51 57 60 68 58 54 52 55 63 62 64 59 56 58 70 64 56 49 47 48 50 55 52 67 72 90 88 72 84 49 42 41 44 47 51
100 100 100 100 100 88 59 36 36 35 43 47 38 60 53 60 54 52 56 62 70 62 62 60 64 68 66 65 61 66 63 58 56 51 47 48 68 85 94 83 54 57 50 49 54 70 59
98 97 100 100 100 76 50 35 37 37 43 45 36 52 47 54 63 53 60 61 72 68 64 60 62 69 72 65 64 75 75 58 70 68 50 49 49 66 64 74 62 60 51 48 45 85 51
100 95 100 100 100 62 42 37 37 37 39 42 39 54 53 66 70 60 65 69 64 60 63 57 60 64 66 72 75 68 77 52 73 74 72 67 64 78 78 79 64 49 47 50 76 77 53
99 100 100 100 89 70 59 39 37 35 39 41 48 54 52 75 82 74 64 65 66 56 66 61 68 66 68 77 76 72 67 59 59 56 56 71 74 76 72 84 80 48 51 64 63 57 61
99 100 100 100 90 75 59 44 36 36 38 48 51 54 47 60 92 71 67 68 68 69 65 71 69 69 74 70 68 70 70 65 60 71 52 71 71 80 66 74 51 46 46 56 64 75 80

GFSGBSN_850_rhum_063.txt.gz
RH
98 100 100 100 100 100 100 100 99 86 74 73 94 90 84 89 86 83 84 66 84 89 50 74 38 50 64 91 78 72 71 62 66 66 75 92 94 84 85 71 78 80 88 69 62 69 64
98 99 100 98 100 100 99 100 99 92 76 71 96 96 88 86 84 88 90 74 83 92 52 63 40 58 80 86 69 74 68 63 89 76 72 84 100 85 77 68 81 86 86 89 69 87 73
82 88 95 97 99 100 100 100 100 99 72 74 97 98 89 88 85 86 89 80 88 81 66 44 40 50 80 68 67 65 66 67 66 77 82 86 98 97 94 75 72 85 89 87 95 91 89
69 81 85 95 94 94 100 100 100 99 80 65 95 90 86 88 87 86 90 77 70 70 51 41 45 68 79 68 65 61 65 73 73 77 78 88 96 91 99 68 71 86 92 94 80 84 74
62 62 81 85 88 90 100 100 100 100 76 56 64 58 89 90 93 92 87 58 65 50 49 42 53 84 70 66 66 68 70 66 87 83 86 87 90 97 88 84 91 84 99 94 81 88 84
88 62 69 88 83 92 100 98 100 98 73 56 46 77 94 90 95 92 61 52 49 46 65 74 71 72 62 62 70 78 89 74 86 89 86 85 89 94 89 89 97 94 95 87 81 86 74
100 89 66 86 88 83 100 94 100 97 69 50 41 57 89 92 94 84 59 80 82 81 64 62 54 56 51 61 81 84 78 84 82 93 95 96 96 100 84 68 65 65 72 70 74 72 92
100 100 88 76 93 82 97 100 100 97 67 44 39 44 88 90 85 51 65 83 78 80 82 60 56 58 57 65 94 87 83 83 95 96 94 96 96 82 70 66 61 62 66 64 57 59 78
97 100 99 84 92 91 89 100 99 99 61 35 36 37 58 59 80 73 80 85 77 66 87 65 59 66 63 76 88 91 90 91 94 96 95 90 79 81 77 73 64 66 65 62 67 67 68
99 96 100 95 92 94 81 100 99 94 53 32 33 29 44 39 90 90 83 82 62 60 98 74 64 64 66 84 89 87 89 91 92 99 96 96 80 80 85 75 59 61 51 57 68 86 92
69 100 96 100 100 95 95 99 97 86 42 31 26 31 36 65 82 86 83 68 57 71 96 58 66 48 58 71 81 95 93 96 95 94 85 98 90 91 86 66 64 72 46 63 77 71 77
63 87 100 99 100 99 97 100 100 82 32 29 29 50 55 84 93 92 77 61 79 92 90 84 58 57 59 63 85 89 96 93 74 73 86 95 91 91 92 68 54 50 77 80 69 66 78
56 78 99 100 99 100 99 100 100 75 30 25 60 69 82 97 92 73 73 88 98 90 77 72 64 53 70 81 79 74 84 83 88 88 99 98 97 81 74 61 51 52 63 98 96 86 78
85 84 98 99 100 100 100 100 100 69 30 34 70 68 96 96 96 72 82 92 90 67 90 56 50 54 73 70 79 80 86 84 61 84 100 99 98 91 80 61 60 52 53 81 85 93 74
100 90 98 99 99 100 100 100 99 53 29 64 69 68 82 84 73 86 95 99 94 73 60 56 55 70 69 61 70 88 78 79 72 65 90 100 100 82 77 67 55 54 75 46 67 54 81
99 99 99 94 100 100 100 100 99 62 29 75 73 82 96 79 77 84 97 88 82 72 71 52 69 57 70 62 65 72 82 65 73 66 62 78 98 88 70 60 49 54 43 67 85 63 58
99 100 98 97 99 100 100 100 94 50 39 82 81 93 86 86 79 94 99 79 71 68 69 73 72 62 54 56 58 69 87 62 61 66 63 60 78 95 69 85 75 66 67 60 64 76 84
97 100 89 100 99 100 100 100 88 50 74 85 85 97 95 91 97 92 92 73 57 68 73 73 76 73 68 43 58 73 82 68 55 58 61 64 76 92 86 80 69 65 60 54 82 70 73
96 100 90 100 93 100 100 100 86 49 73 83 90 96 98 99 97 80 66 67 62 64 68 73 70 65 60 62 64 66 69 58 55 63 70 60 78 96 95 74 62 71 59 53 61 70 78
76 95 94 99 91 100 100 100 85 43 70 78 74 98 98 99 93 92 75 74 72 58 59 55 63 64 54 59 54 64 73 60 57 60 57 57 70 74 84 74 73 76 62 58 67 86 66
76 100 98 100 84 100 100 100 64 38 79 80 71 84 75 95 96 87 69 66 72 70 56 52 56 67 54 63 59 69 61 68 62 57 56 66 79 72 62 64 64 62 60 63 71 65 72
84 99 99 99 96 100 100 97 62 40 89 93 80 78 73 79 68 78 69 64 67 72 65 59 58 61 61 74 74 66 58 55 60 63 60 66 88 70 85 56 59 66 61 58 61 62 62
87 99 100 99 99 100 100 96 65 59 86 86 76 65 64 76 79 78 77 60 70 70 63 62 59 75 82 73 59 54 51 53 57 68 71 72 82 92 86 58 57 69 61 56 55 51 57
96 97 98 100 93 100 100 95 63 59 78 72 61 61 62 85 77 75 63 66 72 64 71 64 60 70 68 60 53 49 52 54 56 56 56 75 78 92 89 71 76 52 44 45 66 67 65
96 91 97 98 100 100 100 97 58 47 76 69 54 59 56 84 69 59 63 79 69 63 66 66 66 64 64 66 69 73 71 62 63 62 56 65 80 88 91 90 60 58 53 53 59 76 60
97 93 99 100 100 100 100 83 46 44 61 70 50 56 52 65 76 68 72 72 87 81 71 62 69 65 70 75 74 80 87 67 80 71 54 54 58 75 79 81 71 61 54 51 48 90 54
97 93 98 88 82 100 100 82 46 47 58 59 48 57 53 64 74 67 76 77 66 71 82 62 64 67 69 83 82 80 85 60 82 81 77 75 73 80 83 87 72 55 51 53 72 79 68
96 99 99 97 93 100 95 72 53 48 49 53 44 58 50 73 82 68 65 69 63 62 80 62 67 69 78 77 82 83 77 67 69 72 70 76 82 84 84 90 91 48 56 68 68 77 77
85 99 100 100 100 100 89 65 55 50 50 61 51 59 49 55 86 78 76 73 65 62 62 70 71 77 77 80 79 82 78 77 72 82 58 76 70 80 74 78 54 57 78 80 75 79 85

GFSGBSN_850_rhum_069.txt.gz
RH
99 99 94 94 84 75 77 86 96 98 99 100 100 100 97 95 86 74 86 86 88 76 98 90 64 50 49 91 71 72 69 64 63 77 85 79 99 94 87 82 77 81 75 78 71 80 84
82 90 99 99 95 86 83 75 91 99 100 100 100 100 96 86 72 80 85 84 86 79 84 86 69 45 58 98 68 70 69 66 64 69 82 75 94 99 95 86 77 70 75 76 82 88 86
80 83 86 97 99 96 82 80 83 98 97 100 100 100 84 60 71 92 86 85 85 73 75 85 80 50 58 36 57 71 71 69 63 73 85 82 93 99 94 87 70 81 87 90 87 90 88
82 83 81 78 89 99 100 82 85 93 97 99 100 100 88 49 61 92 90 89 74 62 68 65 79 64 60 57 68 69 67 65 64 73 85 85 94 88 100 93 78 85 92 96 88 83 89
93 91 78 78 76 82 98 100 82 95 100 100 100 100 88 41 50 91 80 56 60 60 54 74 62 84 73 67 68 69 70 74 72 77 83 84 94 95 95 94 91 88 100 95 92 81 90
99 98 91 64 70 89 83 93 100 93 100 100 100 100 75 37 36 78 46 52 53 48 60 73 76 90 59 62 67 71 80 83 79 80 82 91 93 88 90 93 98 93 97 90 94 93 90
99 100 98 97 65 88 76 76 86 98 100 100 100 100 67 35 44 82 41 71 76 71 75 64 62 64 52 57 66 82 85 79 82 82 92 91 99 94 85 91 90 77 96 96 88 88 86
94 93 99 100 97 43 31 51 67 98 100 100 99 100 55 33 52 66 47 80 74 78 73 62 61 60 58 67 89 87 85 85 84 88 92 96 100 82 80 82 87 78 94 98 88 88 78
92 94 95 96 100 98 42 31 76 89 100 100 100 99 54 32 49 66 54 72 70 63 86 70 64 64 70 77 82 85 81 86 88 96 92 82 84 81 82 90 95 71 91 96 94 88 84
81 80 81 62 62 91 92 44 84 82 99 100 100 96 46 34 65 71 70 73 61 65 86 57 66 67 69 89 93 90 93 96 92 93 85 81 78 83 90 100 73 72 60 66 82 78 94
84 82 85 92 100 98 75 81 79 73 100 100 100 81 40 48 79 80 66 60 56 81 62 39 61 58 75 90 94 97 93 88 95 96 89 95 89 84 97 94 62 79 69 62 68 87 89
94 91 90 90 94 99 80 95 86 67 99 100 100 66 50 65 82 89 63 55 64 82 54 76 64 63 82 89 94 93 97 96 92 87 85 91 84 84 89 71 68 68 83 90 86 97 99
90 98 91 88 91 93 91 97 95 67 99 100 98 68 61 75 84 87 62 70 84 80 62 59 65 56 72 82 81 88 85 93 97 98 93 97 93 83 92 76 71 68 71 98 97 98 97
87 98 96 96 93 92 98 100 98 74 99 100 87 70 72 87 86 72 71 79 75 62 85 53 59 58 78 74 77 78 78 93 83 86 100 95 99 96 76 79 83 72 64 86 88 95 90
87 97 95 93 90 91 93 100 100 98 100 97 88 94 92 98 87 67 80 99 78 80 65 67 59 74 75 65 77 78 82 91 83 71 98 99 98 87 78 70 67 85 77 54 72 65 77
88 97 95 94 85 76 88 100 97 100 100 97 99 99 100 98 81 86 93 90 82 62 65 58 72 66 75 69 75 80 81 64 70 69 68 79 98 82 81 61 54 54 50 67 81 74 66
94 99 95 93 74 69 90 97 89 99 98 98 91 87 100 95 84 93 96 89 78 69 65 60 70 68 64 66 71 86 82 64 65 67 65 73 78 83 74 90 88 62 64 66 69 75 78
100 98 96 89 79 69 97 97 98 96 96 99 94 98 98 92 98 94 97 77 67 77 70 75 71 74 61 54 74 85 81 76 61 63 74 69 83 87 89 72 73 73 63 61 76 71 80
100 98 94 77 85 75 99 98 100 96 94 98 98 99 100 92 99 96 72 72 66 76 80 79 75 70 66 61 80 76 76 66 62 67 70 60 85 92 76 64 64 72 62 62 67 74 78
100 98 94 84 86 82 95 100 100 99 100 100 94 97 100 100 98 85 79 82 79 63 73 72 66 65 64 64 71 74 77 72 61 63 63 59 78 71 85 68 72 78 68 62 67 82 73
99 98 97 92 90 78 98 100 99 97 100 100 83 87 83 97 99 93 78 74 80 79 61 66 67 65 60 68 71 74 70 70 65 64 63 63 82 78 73 70 68 68 69 67 73 59 66
98 98 93 95 96 77 99 98 89 93 97 100 95 87 80 77 88 92 85 81 75 73 64 64 66 61 60 66 63 73 65 68 69 67 69 73 94 72 85 64 63 68 64 65 66 62 61
97 94 87 91 86 89 99 100 100 100 96 100 97 78 72 83 96 94 87 80 73 73 68 63 64 75 74 68 63 56 54 63 65 67 77 75 84 87 89 71 58 71 57 61 64 76 67
91 86 86 88 82 98 98 93 84 94 100 99 90 74 70 95 91 89 74 68 80 67 75 72 63 68 69 60 55 53 54 58 60 65 67 77 84 87 89 68 75 52 56 59 76 70 67
93 90 85 83 80 98 97 95 91 99 100 94 76 69 63 97 82 75 75 82 71 68 71 71 69 68 59 53 73 75 80 66 67 68 76 72 82 92 83 86 61 60 65 67 68 74 63
98 99 81 80 75 98 99 100 100 100 99 86 71 60 64 76 86 85 77 70 83 82 76 72 76 68 64 80 76 82 92 76 83 70 61 65 70 79 84 85 81 56 60 56 56 78 70
96 90 84 70 98 99 94 97 100 99 98 97 68 59 58 76 88 82 80 75 69 76 87 76 71 68 68 85 84 84 87 71 88 84 78 77 80 83 84 89 74 57 52 57 67 60 72
91 90 87 81 98 99 96 88 97 100 100 100 86 61 56 80 89 78 73 70 67 64 82 71 70 69 84 81 83 86 80 78 79 74 75 80 86 86 86 89 85 54 57 68 69 75 72
91 88 87 78 98 95 99 95 98 100 100 99 88 63 58 64 88 82 77 72 65 62 65 74 70 78 75 87 87 88 84 82 82 88 71 77 71 78 79 78 74 68 66 69 68 67 75

GFSGBSN_850_rhum_072.txt.gz
RH
95 95 88 86 89 98 99 98 91 86 86 94 98 100 100 99 91 70 64 74 82 86 75 87 90 87 54 88 67 62 72 68 66 66 72 81 84 93 84 82 73 93 75 67 65 60 66
100 99 99 87 79 84 91 100 100 93 85 90 99 100 100 100 94 70 69 79 86 91 77 81 88 86 55 92 53 69 71 67 67 67 76 81 78 97 89 82 78 80 74 65 68 62 72
98 97 99 99 84 80 86 81 94 99 100 86 100 100 100 100 93 62 82 89 86 89 61 68 88 76 61 35 38 67 71 71 67 65 76 79 85 97 96 88 83 62 85 84 72 70 73
98 98 99 100 100 100 98 94 79 81 98 100 92 100 100 100 81 59 79 88 91 84 59 75 75 68 50 38 65 68 69 67 66 68 71 86 88 95 100 90 90 90 81 95 70 82 98
95 93 94 97 93 80 97 99 92 68 77 100 95 100 100 100 69 53 70 80 64 83 69 68 74 66 68 65 59 64 68 67 73 78 76 85 83 97 90 92 96 88 95 100 91 83 90
92 93 96 90 92 94 84 66 92 92 66 84 98 100 100 100 66 58 60 67 57 76 59 65 70 91 57 54 59 67 76 81 86 77 83 86 93 95 92 97 96 95 98 95 98 89 86
93 93 94 92 92 92 97 97 46 33 42 45 97 100 100 99 58 64 63 75 66 78 72 51 60 60 55 52 63 80 88 82 81 82 87 87 100 100 96 100 76 73 79 100 95 87 86
94 94 94 94 94 95 93 99 98 56 29 45 90 100 100 96 63 60 50 88 74 73 70 54 59 66 62 63 78 82 83 87 83 91 88 98 100 85 86 88 78 74 83 93 87 87 82
92 95 99 99 94 92 91 91 100 98 49 32 78 100 100 91 74 62 44 72 67 62 77 70 65 65 67 76 84 83 83 86 89 94 98 100 93 78 79 86 86 84 89 96 99 88 85
94 100 99 97 93 93 89 93 96 97 81 50 93 100 100 79 78 70 61 76 66 66 86 55 65 67 72 82 91 90 96 90 92 94 95 91 81 77 88 97 87 89 74 78 94 83 97
99 99 89 93 94 87 74 77 88 75 89 68 62 100 100 81 71 79 66 70 57 76 63 32 58 63 74 87 94 96 97 99 91 88 95 97 89 89 94 96 88 92 69 74 78 87 89
96 93 87 85 90 87 94 88 88 87 80 78 69 100 100 75 86 76 70 64 70 79 55 67 66 68 82 87 94 95 94 94 92 89 88 88 81 88 89 89 87 75 84 86 92 92 95
98 98 97 95 94 93 92 89 83 91 95 91 99 100 99 83 82 84 68 69 83 80 59 62 68 62 75 83 86 91 90 97 99 97 99 95 93 88 89 90 72 78 86 98 98 98 97
100 98 98 97 96 91 87 88 85 95 98 99 99 100 98 89 88 81 74 76 85 60 78 51 61 62 77 73 90 89 94 95 81 85 99 92 96 92 82 81 90 75 67 86 90 96 97
100 99 98 100 96 95 83 80 66 99 96 99 100 100 99 100 94 81 85 94 78 77 67 71 65 73 73 67 77 92 86 98 81 74 98 99 98 89 88 71 64 75 79 58 74 68 93
92 98 100 100 97 89 81 60 89 96 84 99 99 100 98 99 97 84 91 84 81 64 63 58 67 65 75 72 77 78 86 68 76 75 72 89 97 91 76 61 58 60 52 67 81 76 79
95 96 99 98 90 82 72 75 99 95 99 100 100 100 100 98 93 94 98 90 80 66 63 60 72 70 69 68 77 86 84 66 67 68 67 71 78 95 76 87 80 62 66 66 70 78 76
97 98 100 98 89 83 67 81 99 100 91 100 98 100 100 94 97 89 94 85 71 79 71 77 68 71 63 61 81 88 86 78 66 66 75 71 81 96 90 74 74 77 65 58 79 69 78
98 96 99 100 84 80 70 81 97 100 97 99 100 100 100 100 98 96 86 75 70 74 77 76 74 69 69 66 85 79 80 68 63 67 67 62 84 91 76 65 63 72 65 67 67 74 77
99 96 99 99 91 79 80 80 98 100 100 97 98 99 99 99 98 86 86 83 81 68 79 72 66 66 65 68 72 83 81 72 63 69 67 60 79 69 80 64 71 77 69 62 64 79 75
99 99 98 100 86 85 80 95 100 100 97 95 99 99 96 98 96 95 76 78 84 83 67 71 70 65 61 73 67 80 77 71 63 66 66 65 85 81 75 73 70 71 72 67 73 60 63
100 98 98 89 76 88 80 98 99 98 97 96 97 98 83 70 88 90 81 77 79 77 72 70 70 68 59 67 60 65 71 70 74 67 73 74 94 72 83 67 64 71 67 72 65 63 62
100 99 96 86 83 85 65 100 98 100 100 100 97 92 78 78 95 91 84 76 75 71 72 64 67 72 69 67 62 66 64 70 71 69 78 76 83 86 86 72 59 70 58 64 71 75 67
99 97 98 90 83 77 91 98 99 97 97 99 98 85 79 85 93 89 80 71 80 68 78 75 65 68 69 58 56 54 54 58 62 75 70 77 82 87 89 68 79 54 63 60 69 71 68
97 96 90 86 80 69 99 100 98 91 98 99 96 84 79 83 87 78 79 86 74 71 76 75 74 70 60 56 73 76 82 70 71 75 78 72 80 92 84 86 60 60 72 73 66 67 64
99 90 84 85 71 99 100 89 99 95 98 96 72 67 74 82 84 91 78 71 84 82 80 79 80 67 62 80 75 81 92 75 84 72 62 67 73 80 83 82 72 56 62 58 56 72 69
97 97 85 81 79 99 99 93 99 100 100 76 67 62 67 82 91 87 80 78 69 77 90 79 72 68 64 83 85 85 89 71 86 85 79 81 83 84 85 88 72 56 54 56 66 59 71
100 80 88 84 58 100 99 97 96 99 97 91 72 60 62 82 89 84 76 72 68 66 82 74 70 68 83 81 82 86 81 81 79 73 75 80 87 87 88 88 79 62 59 63 65 75 71
88 77 79 63 96 95 99 92 96 97 98 91 78 65 68 67 85 81 78 74 69 65 67 73 70 77 74 87 87 89 82 84 82 82 73 77 71 77 77 76 71 72 71 69 68 67 71

GFSGBSN_850_rhum_075.txt.gz
RH
99 100 100 100 100 100 97 92 81 89 96 99 100 95 89 98 100 99 93 50 66 76 82 76 85 95 84 57 41 42 56 85 68 67 64 72 85 88 85 75 78 84 69 70 68 62 64
99 98 99 99 98 100 100 100 100 98 86 84 93 100 82 98 100 99 90 66 82 82 86 82 82 95 82 68 36 51 67 71 70 70 70 75 77 81 93 87 80 71 72 76 75 63 67
97 95 96 97 98 100 100 96 100 93 80 70 81 88 92 95 100 99 74 79 89 84 83 82 79 98 86 41 34 47 67 71 70 68 68 66 76 93 90 94 79 73 80 74 73 70 67
95 95 94 98 92 98 89 99 99 98 94 74 52 88 93 100 100 99 82 61 88 83 66 74 94 87 53 33 43 60 68 70 69 66 71 72 79 96 87 95 93 85 77 90 70 72 60
96 94 94 98 95 95 95 98 98 97 94 83 66 79 98 100 100 100 77 76 70 64 74 80 96 87 47 56 61 56 61 67 66 70 80 81 92 90 76 99 100 87 96 92 90 65 78
88 94 94 91 93 98 91 96 96 97 86 70 52 41 91 100 100 98 67 69 73 68 79 98 91 96 53 51 49 59 72 81 80 83 81 90 90 90 96 99 97 97 99 98 86 80 79
93 93 94 89 86 84 97 96 91 92 93 57 39 32 97 99 100 88 60 65 73 83 78 75 52 57 54 55 61 71 86 85 86 86 92 87 99 98 99 97 99 99 93 96 83 73 78
89 96 92 84 84 87 96 98 92 96 96 87 55 40 91 100 100 91 69 72 72 75 72 57 61 69 63 64 73 79 86 85 84 92 88 92 100 83 80 90 98 95 91 94 83 88 83
97 98 90 92 95 99 95 100 99 99 99 98 70 64 87 100 100 96 71 56 80 72 75 71 66 68 66 70 83 84 85 87 88 91 100 100 93 78 85 100 98 79 80 94 99 94 86
86 96 94 92 98 99 99 97 96 98 96 100 77 72 73 100 100 87 60 62 85 63 85 59 71 69 73 78 91 91 91 86 90 95 97 98 80 78 89 94 85 88 72 77 85 97 96
86 97 100 99 100 100 98 98 96 95 82 85 80 74 58 100 92 76 77 73 78 80 82 35 62 69 74 86 92 96 96 99 92 89 97 96 90 85 93 89 85 92 70 77 77 85 92
91 98 100 100 99 99 98 96 94 88 85 80 84 89 67 100 97 80 84 83 68 82 75 64 72 77 85 85 92 91 95 96 89 94 89 87 81 89 90 84 85 77 78 84 88 88 91
90 95 100 99 99 99 98 94 86 86 88 82 73 95 94 100 92 97 97 74 89 92 60 74 75 74 81 82 84 89 97 94 90 92 98 86 88 91 94 95 81 75 84 99 96 94 96
90 96 98 97 98 98 99 85 79 91 86 99 96 92 95 99 94 97 86 83 95 62 76 54 64 68 76 76 96 94 96 99 86 92 94 92 91 95 91 89 94 85 80 84 91 92 98
93 99 98 99 100 100 95 75 78 88 95 89 100 99 99 98 98 98 79 98 83 73 65 72 70 72 75 71 95 98 100 86 77 76 90 99 100 86 89 74 67 71 77 57 90 94 93
99 98 98 100 99 94 78 87 96 95 95 72 97 100 100 99 100 99 91 88 78 60 65 60 71 65 79 74 82 87 89 72 93 76 74 92 97 87 76 65 57 58 53 65 80 90 94
100 98 99 100 95 83 76 85 94 97 100 94 98 98 100 100 100 93 98 92 80 62 63 60 72 77 70 72 79 85 82 72 70 70 69 72 78 90 75 93 88 66 65 68 69 73 73
99 99 99 99 90 84 80 85 89 98 100 100 98 99 100 100 99 88 98 84 74 79 72 74 70 69 62 66 86 90 86 81 72 68 76 72 80 94 91 74 75 80 68 57 71 67 69
98 97 99 93 84 82 83 86 80 99 98 98 99 100 100 100 100 98 84 79 73 75 73 70 77 68 66 73 85 82 82 70 67 71 68 62 83 91 79 64 62 74 68 68 67 69 72
97 92 94 97 96 82 84 84 94 100 97 94 98 99 100 100 97 87 96 80 82 70 78 67 74 67 65 73 73 85 82 72 66 73 69 60 82 70 82 68 71 74 71 65 62 70 66
98 92 98 93 92 85 82 74 100 98 100 93 99 100 96 99 96 94 88 76 84 82 76 68 71 64 64 73 67 85 78 70 62 68 68 67 86 81 75 74 73 73 72 67 70 59 58
92 97 94 88 85 82 80 67 100 99 99 98 99 99 97 76 84 96 85 76 82 76 75 74 79 68 60 65 60 70 71 70 78 69 75 74 92 73 83 65 65 74 72 70 65 63 61
92 93 87 83 83 86 81 96 99 98 100 98 100 98 85 86 91 95 82 75 75 75 75 69 71 72 74 70 61 67 65 73 76 72 76 76 82 86 86 71 58 71 64 71 72 74 65
97 90 94 86 87 78 81 100 98 93 100 97 98 89 71 96 86 85 75 73 73 75 82 76 66 69 70 62 59 57 58 62 68 79 72 76 79 85 88 69 79 56 68 63 66 70 69
98 98 90 86 84 73 100 94 90 84 98 98 98 84 74 85 88 80 77 81 74 73 81 84 81 71 62 56 74 77 80 66 74 76 78 72 77 88 82 85 56 60 68 67 64 64 66
96 95 84 86 76 85 97 95 88 86 94 90 68 68 75 83 90 94 80 74 83 84 85 82 80 64 59 78 73 79 89 77 83 74 62 67 74 75 79 78 61 54 61 59 58 61 66
95 93 81 83 83 93 97 99 98 93 95 77 64 64 70 87 94 88 84 80 72 79 92 81 72 66 60 82 84 84 89 74 83 84 82 84 85 84 86 84 69 57 57 57 62 52 70
87 87 70 76 80 97 99 95 98 96 88 69 67 66 66 84 92 86 80 75 70 69 84 74 72 68 80 80 80 86 82 82 79 73 76 80 86 86 86 84 66 62 62 61 60 71 69
87 68 72 70 88 100 100 95 100 95 91 69 64 66 69 66 84 82 80 75 72 71 70 71 70 76 74 88 88 88 80 85 82 75 75 77 72 75 75 72 63 62 67 64 62 63 69

GFSGBSN_850_rhum_078.txt.gz
RH
98 98 98 98 99 99 98 99 99 99 99 100 94 79 89 88 89 100 99 99 87 55 82 83 76 87 90 82 64 53 60 90 75 67 73 70 71 62 58 45 52 60 52 49 42 49 53
96 94 95 96 96 97 99 96 100 98 96 98 100 92 96 79 75 99 100 100 67 69 84 91 75 86 97 78 46 34 54 70 77 73 80 77 66 69 67 61 60 48 54 53 52 52 56
98 96 97 96 97 94 92 94 89 99 99 98 95 98 99 85 77 99 98 95 70 54 81 83 71 90 98 77 43 40 55 67 72 78 76 76 76 76 66 64 62 78 79 61 53 51 57
99 94 98 96 95 88 88 91 93 91 91 99 99 98 99 100 100 99 100 93 55 73 76 66 75 99 84 42 38 41 55 64 69 70 73 77 84 81 77 71 73 78 79 95 51 49 47
96 94 96 98 89 87 83 84 87 90 89 96 96 92 57 98 100 100 100 82 69 71 61 77 87 95 63 45 51 58 59 74 76 75 70 88 90 81 72 86 97 93 97 87 57 42 45
96 94 95 91 84 78 79 79 82 82 94 92 87 94 39 91 100 100 99 81 70 70 76 84 93 80 50 52 49 51 63 78 87 87 82 85 87 77 75 96 92 100 83 68 61 46 49
95 97 88 87 83 79 81 92 83 80 82 81 80 75 55 98 97 100 95 88 89 88 95 69 69 63 50 52 61 68 82 88 90 81 68 73 86 86 63 93 95 100 98 90 58 69 54
96 92 94 91 96 85 87 87 90 85 88 86 75 82 64 95 100 100 86 77 65 69 66 58 76 58 61 63 70 83 82 82 73 67 72 77 85 57 74 86 96 100 97 97 91 72 57
95 92 97 96 89 84 86 87 89 81 86 82 82 75 73 86 100 100 90 78 71 77 62 73 63 68 70 69 73 75 90 82 70 69 76 96 67 72 93 99 100 98 86 82 97 84 76
98 91 98 96 93 94 88 92 97 92 87 79 78 82 80 80 100 99 96 79 75 68 84 65 73 69 77 84 82 88 90 86 76 76 75 90 77 83 94 100 88 89 68 92 96 99 98
88 87 91 96 98 98 95 90 95 98 87 79 80 80 78 79 99 99 81 67 77 66 85 56 69 71 80 79 85 90 92 91 95 86 98 98 87 81 83 98 79 78 80 82 87 69 82
88 89 94 97 99 97 94 91 94 81 71 75 81 82 87 92 94 98 77 81 68 82 83 70 68 73 87 84 81 88 91 94 93 96 96 83 72 78 79 76 81 80 66 73 69 67 91
94 93 97 98 99 95 86 81 84 87 93 97 96 97 90 99 97 92 97 87 90 87 58 77 73 70 71 73 79 84 92 80 95 98 99 73 94 85 87 93 89 85 66 93 86 91 94
94 97 98 97 98 91 91 88 92 82 97 99 99 100 94 100 97 99 99 84 92 66 72 54 57 63 70 73 81 79 79 80 74 76 79 93 99 98 84 87 85 70 68 64 69 87 96
92 98 97 97 84 90 95 88 81 94 98 99 100 98 96 99 100 98 97 95 82 75 51 59 62 65 68 71 77 92 94 75 74 77 92 99 100 92 82 68 64 64 67 49 71 78 62
96 99 99 98 97 87 80 77 84 96 100 97 90 99 100 88 100 99 99 89 72 52 55 52 59 55 63 68 66 77 86 84 92 78 70 72 93 70 66 62 53 50 43 59 66 73 78
95 98 98 99 98 83 78 80 90 99 100 99 95 98 100 100 100 100 98 88 72 58 60 54 57 58 56 63 63 68 95 92 72 63 61 63 63 70 61 74 75 55 51 51 48 58 52
98 100 100 99 89 79 77 84 88 98 100 99 98 99 100 100 99 98 86 74 68 66 71 61 56 52 52 60 69 69 77 79 63 62 64 58 59 81 71 58 60 66 54 43 45 55 54
98 98 99 96 89 78 78 83 100 98 99 98 99 100 100 97 98 94 78 73 64 63 62 60 63 56 51 63 70 69 72 63 65 62 59 52 63 80 67 54 54 56 52 48 45 47 54
99 96 88 89 84 76 78 91 100 99 100 86 98 100 100 100 98 62 94 68 65 71 64 63 64 54 54 60 62 73 68 62 63 65 68 51 58 65 59 68 63 58 54 50 46 53 40
96 91 86 93 85 81 73 96 99 98 96 86 98 100 99 100 94 83 87 63 64 65 69 61 56 51 51 61 63 69 64 57 56 64 56 51 78 73 58 59 61 61 61 54 60 47 44
94 91 90 100 84 82 74 98 97 97 99 97 98 98 98 76 85 97 79 60 63 71 67 60 57 55 48 53 52 62 57 56 64 52 57 54 79 65 75 49 54 62 60 57 53 52 48
99 89 90 97 80 72 84 97 97 94 97 98 98 91 80 80 76 93 79 64 65 62 67 66 52 53 59 63 60 63 60 63 60 58 57 58 67 75 75 53 49 50 56 59 60 57 49
88 96 92 87 82 71 90 90 85 87 88 83 90 81 67 80 63 94 74 63 68 69 66 71 65 55 67 61 58 55 53 53 52 53 55 56 61 70 74 56 63 48 54 58 55 58 56
88 100 98 89 76 77 91 91 88 86 83 79 83 77 70 77 74 80 70 68 67 71 75 80 81 66 61 59 54 58 55 53 57 55 51 48 50 62 61 56 47 51 57 55 53 51 54
91 78 84 75 62 88 88 94 85 84 82 66 66 72 61 64 84 96 74 66 61 66 70 78 71 66 62 52 51 63 62 66 66 61 53 51 47 47 53 54 41 46 53 56 56 45 54
81 89 69 65 91 89 84 95 81 86 73 62 64 70 66 84 92 88 76 75 75 70 72 73 72 65 59 56 59 61 66 64 59 64 67 63 61 62 60 57 48 45 53 57 52 44 58
71 76 66 64 95 94 93 90 89 87 70 65 63 62 62 81 88 84 80 76 72 72 60 71 64 59 60 61 59 65 58 62 61 62 63 62 61 61 63 64 50 54 57 52 49 63 62
70 68 63 67 89 99 91 93 88 75 70 65 63 68 64 62 80 79 78 74 73 73 74 66 66 70 66 58 62 61 59 64 61 52 63 62 54 49 52 44 51 60 59 60 58 60 68

GFSGBSN_850_rhum_084.txt.gz
RH
98 97 97 98 96 97 96 94 89 88 88 99 94 92 89 98 99 94 98 96 100 99 100 94 54 65 70 82 58 58 46 79 62 71 58 50 44 42 48 38 35 41 40 34 34 35 36
98 98 97 98 92 95 94 87 83 84 84 86 95 95 91 97 94 100 98 96 99 99 100 90 66 70 81 61 53 59 56 78 71 76 62 57 51 48 48 46 48 42 40 40 38 37 39
98 94 93 92 87 94 97 86 86 82 86 80 90 94 90 94 93 86 100 99 100 97 99 82 74 64 84 62 51 57 60 60 66 66 62 56 54 54 51 57 47 48 58 52 47 42 45
88 92 90 92 97 85 95 97 87 80 85 77 80 87 70 72 64 63 92 100 98 100 94 92 80 90 73 66 67 56 54 51 55 62 63 63 65 63 59 55 58 66 67 80 50 47 44
94 92 97 91 88 94 92 98 98 78 84 82 73 88 75 72 74 72 92 100 100 94 75 68 86 90 65 63 49 47 46 52 60 60 64 63 62 60 62 78 89 74 92 76 61 41 44
100 91 98 95 88 94 91 95 98 82 84 84 73 64 76 71 62 98 99 100 98 85 87 98 92 87 69 47 56 59 60 61 64 66 65 72 76 82 76 89 90 81 82 87 90 58 60
100 94 91 92 89 96 92 99 85 81 82 75 70 62 64 64 69 80 100 97 93 96 99 84 72 49 47 54 56 65 69 80 76 67 77 71 95 95 73 74 71 71 76 80 71 57 78
99 97 86 96 93 90 93 91 95 94 78 78 73 68 62 57 74 72 99 96 93 99 93 85 64 52 54 59 63 67 77 69 65 72 62 76 98 58 52 79 81 88 83 87 72 66 75
98 96 86 98 93 94 96 98 90 98 85 77 73 68 64 62 67 78 84 97 98 98 94 78 70 58 57 63 54 69 74 62 60 67 66 89 59 70 86 92 98 91 79 91 96 90 76
95 91 92 96 92 85 96 97 89 91 85 85 76 68 68 66 73 95 100 100 94 90 100 79 67 61 66 64 63 70 74 76 69 64 79 85 61 60 73 99 98 99 72 76 100 95 93
92 89 95 96 96 98 89 93 92 94 78 73 74 67 66 74 97 91 98 99 97 86 98 68 62 66 66 66 77 82 78 79 78 74 93 80 84 87 98 94 92 96 73 92 90 93 86
87 97 99 98 99 92 95 87 86 76 79 79 96 91 75 80 76 88 74 100 96 99 97 73 68 67 70 64 68 86 85 83 83 85 94 93 71 79 72 66 72 73 81 90 95 99 87
90 100 100 97 94 93 95 88 89 92 96 98 99 98 90 88 94 97 80 100 99 99 63 74 68 65 60 72 79 74 75 84 96 100 95 77 86 78 80 93 75 84 96 99 98 98 98
92 92 91 86 87 91 94 99 99 100 100 94 100 97 97 93 98 95 98 100 98 69 66 49 59 63 70 64 75 79 79 91 72 72 100 100 98 96 85 91 96 85 97 99 97 97 98
96 98 96 91 86 83 100 99 98 100 98 92 94 100 99 92 93 99 94 98 99 77 51 56 60 72 74 61 68 77 77 90 69 84 100 100 100 84 83 72 60 70 93 73 100 66 92
99 98 99 93 82 78 98 100 96 98 99 97 99 98 99 88 85 99 97 100 77 52 44 49 61 52 64 60 74 84 83 72 74 77 78 90 100 78 62 70 57 58 46 73 88 97 95
100 99 100 88 84 76 99 99 83 86 95 86 83 94 99 89 98 98 100 100 68 52 48 50 45 54 52 60 91 76 87 75 67 79 74 66 85 63 58 63 67 59 57 48 49 62 75
86 100 98 86 84 75 97 100 90 74 76 77 85 97 99 97 96 98 100 84 47 50 48 48 43 50 57 51 72 69 78 80 54 54 56 50 65 80 59 48 47 59 45 41 77 61 64
85 93 95 86 82 82 88 92 88 81 75 88 96 100 100 97 100 100 88 54 55 48 53 48 49 46 43 54 83 62 60 50 52 53 61 54 62 91 68 59 50 47 41 45 43 64 58
95 86 87 88 82 93 84 84 80 74 67 78 88 99 95 98 92 93 57 53 61 55 52 46 47 42 45 51 48 56 62 52 51 52 53 60 59 72 89 74 61 60 49 45 59 79 62
87 92 85 91 89 82 82 77 78 69 62 67 83 91 92 99 74 57 43 49 59 57 46 42 43 41 43 51 54 55 50 56 46 47 52 52 72 70 49 50 53 54 53 52 56 43 62
73 90 92 85 75 83 82 74 79 78 63 69 82 86 82 67 74 50 48 54 55 57 54 46 49 48 48 56 51 53 43 52 56 41 46 47 75 65 62 46 51 59 56 55 56 51 44
66 88 91 60 83 76 66 70 86 81 66 70 68 65 59 65 60 47 50 52 59 51 53 55 50 58 66 59 46 42 41 41 43 50 51 54 74 89 78 48 47 64 56 58 55 55 55
76 90 72 85 81 72 66 63 79 78 69 72 66 67 54 66 61 53 49 56 63 59 62 60 54 54 59 56 49 42 41 41 42 44 40 48 60 86 88 68 75 48 45 49 53 50 50
54 50 66 89 78 80 68 64 70 70 63 54 61 67 54 65 52 49 49 56 57 60 64 68 64 61 58 56 54 55 53 50 48 47 49 46 50 71 85 65 43 46 49 53 62 55 48
58 43 78 91 89 92 72 73 69 65 63 60 58 62 60 61 76 73 54 48 54 59 61 62 60 52 57 56 48 54 68 50 53 46 41 45 44 59 58 58 45 48 49 47 48 64 48
49 39 82 94 99 87 82 77 74 67 65 62 65 62 66 74 77 76 68 70 59 55 66 59 58 57 55 61 58 64 66 51 59 51 57 59 58 63 58 64 52 49 48 49 57 64 47
61 37 80 78 84 84 88 77 67 64 63 58 64 68 64 71 77 76 68 68 64 63 63 61 63 62 62 58 60 57 57 55 57 46 51 59 68 61 59 62 67 47 50 52 54 51 51
57 39 80 82 67 83 74 69 68 63 62 58 57 64 63 61 71 68 67 65 64 65 65 59 61 57 65 66 58 55 57 54 51 54 50 61 57 63 53 60 46 45 52 55 51 52 56

GFSGBSN_850_rhum_087.txt.gz
RH
95 95 92 97 96 97 87 84 92 80 82 82 76 85 86 92 87 99 99 90 96 100 100 100 98 67 57 78 69 56 42 62 69 56 56 52 48 47 56 49 49 54 54 49 46 43 42
97 93 91 94 85 89 95 88 92 84 82 81 79 80 88 95 93 89 90 94 93 100 99 97 95 64 62 83 65 61 53 53 60 53 58 53 50 53 50 50 57 50 55 54 50 46 42
98 98 98 93 90 84 90 93 91 91 84 76 86 81 79 77 82 68 58 83 97 100 99 90 93 68 69 64 52 54 61 62 73 72 64 58 57 55 55 59 51 58 71 63 55 52 55
98 99 100 92 97 85 87 91 95 98 93 79 80 76 73 71 69 66 71 79 85 99 100 97 80 84 76 58 59 55 45 59 65 66 64 62 64 64 64 59 59 71 75 93 55 53 53
98 99 98 96 88 90 84 84 97 99 86 74 73 74 78 64 66 61 98 99 99 100 100 89 79 82 76 68 68 59 48 49 57 58 61 64 62 63 62 74 92 84 98 86 66 51 58
99 100 95 87 93 90 91 94 83 82 79 82 76 70 77 67 63 76 99 100 99 98 81 91 90 92 71 56 50 44 46 53 60 62 62 63 68 81 82 92 96 92 97 80 80 57 57
90 89 65 94 96 87 80 86 97 79 90 92 81 75 74 70 63 67 97 100 92 98 100 95 85 65 60 53 55 58 59 60 68 62 72 78 88 89 88 87 78 83 87 86 70 58 67
92 78 94 92 88 78 86 100 81 82 80 92 81 78 74 68 68 74 76 100 100 100 95 86 87 57 51 51 66 67 72 78 74 83 68 82 90 73 70 69 74 91 97 89 76 64 83
73 98 91 99 90 93 98 98 99 99 90 85 79 75 67 64 66 78 84 99 98 100 96 92 82 65 55 58 62 73 73 71 68 72 75 93 72 66 78 90 93 88 96 90 86 71 84
94 93 99 99 96 99 95 96 99 99 90 77 79 78 73 62 79 86 98 84 97 100 100 98 78 61 61 58 70 71 71 70 75 74 86 88 72 71 76 92 88 99 90 95 93 98 96
92 92 97 88 95 85 89 97 100 99 85 81 72 71 71 63 96 86 92 94 92 100 96 82 70 61 61 70 75 79 75 72 78 70 89 74 86 87 90 96 93 98 85 85 93 96 98
93 99 97 95 88 96 98 99 98 100 93 87 86 80 81 70 80 76 80 88 99 93 98 98 78 72 72 70 76 86 86 80 80 87 87 84 77 80 79 77 73 76 92 94 94 98 99
95 97 94 90 86 95 100 99 94 91 98 99 99 100 82 89 92 84 81 87 88 95 84 82 86 70 65 79 82 81 90 89 93 95 96 78 84 78 81 88 78 89 100 98 98 98 99
98 96 90 83 85 92 100 97 92 95 93 96 100 98 87 97 93 90 86 85 88 95 74 59 63 71 81 72 77 87 85 90 80 82 95 97 92 91 85 88 96 96 99 98 97 97 98
90 97 88 86 91 91 99 98 88 87 89 97 96 93 93 98 84 79 66 96 98 93 57 65 71 84 80 69 75 81 79 85 76 85 100 96 96 81 87 77 73 82 99 89 100 78 96
93 91 79 85 92 96 97 90 98 97 98 96 77 81 98 97 85 80 88 98 92 57 60 67 81 68 77 77 78 82 87 75 80 80 79 90 96 78 71 68 66 68 56 80 95 97 96
99 86 81 80 85 98 95 86 97 92 92 76 72 94 100 85 91 83 99 100 98 77 73 74 57 63 63 84 82 89 88 76 72 76 81 84 95 77 70 64 68 70 69 57 56 72 81
89 76 78 81 79 94 89 85 80 81 81 76 90 94 91 90 96 99 100 96 89 62 55 50 53 59 60 74 87 77 85 85 67 58 74 71 71 89 60 50 51 60 66 51 78 65 78
82 75 64 84 87 92 80 79 83 71 68 85 96 99 95 98 98 100 95 74 63 58 58 54 52 49 48 73 74 69 66 53 54 57 63 59 71 91 76 60 57 57 51 53 54 68 77
74 74 53 68 77 89 85 73 77 74 68 77 84 98 90 96 97 95 73 59 66 53 54 47 49 45 49 57 58 64 66 54 52 53 54 61 67 76 90 74 67 65 61 57 61 82 78
51 61 38 73 86 79 62 70 67 66 65 78 75 92 86 99 94 97 57 63 68 69 54 43 49 46 47 63 59 59 54 57 51 48 53 60 72 70 54 54 58 63 67 66 70 54 70
40 43 54 74 76 69 61 64 58 61 60 67 68 82 87 77 74 61 58 68 68 65 65 68 71 66 63 70 62 62 53 56 58 53 49 59 72 74 68 52 52 57 64 66 66 63 61
47 38 72 75 69 67 72 78 61 52 56 67 68 71 71 69 72 65 67 69 67 54 59 62 62 68 69 65 60 57 43 44 46 51 59 60 79 91 77 57 52 64 60 63 63 62 58
53 56 81 70 74 69 66 71 67 56 54 58 64 67 64 79 70 66 66 68 74 71 68 65 58 63 57 55 49 44 43 45 47 52 49 55 67 92 84 70 70 52 48 51 54 56 60
49 47 89 74 86 79 65 67 61 57 52 60 62 65 63 76 66 59 61 66 63 62 68 68 59 56 54 58 62 62 63 53 49 48 50 54 62 75 79 77 47 49 52 55 56 61 54
51 49 84 90 78 82 74 67 59 56 54 53 60 65 66 62 77 76 71 58 68 71 71 60 54 56 55 69 59 56 72 57 58 55 46 50 54 69 66 62 51 47 52 49 50 70 50
52 47 89 82 90 74 79 69 64 61 59 53 63 63 58 65 73 73 78 75 64 68 78 64 58 54 59 72 67 70 73 53 66 59 54 68 68 68 69 69 58 49 51 49 54 50 50
48 41 86 84 88 78 73 70 72 67 62 61 60 62 60 61 67 68 68 67 66 68 76 63 65 65 74 70 70 68 68 62 62 50 52 66 74 73 68 68 54 50 53 55 52 52 51
35 32 80 89 80 76 64 66 73 66 60 57 58 62 61 59 64 66 65 64 64 66 68 63 65 68 70 79 74 71 65 66 59 59 55 55 59 64 59 61 47 47 51 51 49 49 54